METEOR 2-17 DEB, 38282

Orbit data source: Space-Track

METEOR 2-17 DEB, 38282 is space debris in LEO originally from a launch on Sat, 30 Jan 1988 UTC launched from the Plesetsk Missile And Space Complex (PKMTR). Debris objects in space refer to the collection of defunct objects orbiting the Earth. Examples of debris include non-operational satellites, rocket bodies, and fragments generated from explosions, collisions, or faulty payload assembly.

Loading next visibility...
Identifier
38282, 1988-005AK
Orbit
LEO
Last TLE update
20 hours ago
Origin
Manufacturer
Unknown
Mission
Spacecraft
Bus & Motor
Unknown
Mass
Unknown
Launch date (UTC)
1988-01-30 (37 years ago)
Launch vehicle
Unknown
Launch site
Plesetsk Missile And Space Complex (PKMTR)
Object type
Payload
Rocket body
Debris
Shape & HBR
Unknown
Radar Cross Section
Small (<0.1 m²)

Expand to show TLE details & history

TLE from 20 hours ago
0 METEOR 2-17 DEB
1 38282U 88005AK  25128.53058508  .00003358  00000-0  22059-2 0  9995
2 38282  82.5384 230.0419 0018612 300.6715  59.2620 14.01614772729919
Epoch: 2025-05-08T12:44Z
Definitive object data (Epoch: 2025-05-08T12:44:02.55Z)
Latitude
-0.00005°
Longitude
172.43151°
Altitude
884.24 km
Speed
7.414 km/s
True Right ascension
15h 20m 10s
True Declination
0° 00' 00"
Sunlit
Object was in full shadow at TLE epoch
Visualization TLE readout
Latitude
36.21589°
Longitude
-13.7095°
Altitude
905.33 km
Speed
7.396 km/s
Apparent Right ascension
03h 36m 09s
Apparent Declination
1° 08' 45"
Sunlit
Object is in daylight
Visualization observer readout
Local Sidereal Time
16:24:58
Azimuth
18.21° NNE
Elevation
-47.449°
Doppler factor
1
Orbital elements
Apogee altitude
898.856 km
Perigee altitude
871.818 km
Semi-major axis
7,263.474 km
Eccentricity
0.0018612
Inclination
82.5384°
RAAN
230.0419°
Arg. of periapsis
300.6715°
True anomaly
59.44553°
Mean anomaly
59.262°
Eccentric anomaly
59.35374°
Mean motion
3.50612 °/min
BSTAR
0.0022059
Orbital period
102.68 mins
Loading maneuver chart data...
Loading SW <> Apogee altitude chart data...
Loading historical data...
Loading historical data...
Loading historical data...
Loading historical data...
Loading historical data...
Loading historical data...
Loading historical data...

METEOR 2-17 DEB Visibility forecast

Observer location: undefined°, undefined°

Span
Click to sort rows by Start time (UTC) header in descending order
Start Az.
Max El. time (UTC)
Max El. Az.
Max El.
End time (UTC)
End Az.
11 mins2025-05-09 18:25:50.020Z355.609° N2025-05-09 18:31:50.020Z120.192° SE43.792°2025-05-09 18:36:50.020Z167.868° S
4 mins2025-05-09 20:12:50.020Z293.864° NW2025-05-09 20:13:50.020Z283.049° WNW13.039°2025-05-09 20:16:50.020Z251.662° W
5 mins2025-05-10 06:00:50.020Z104.817° ESE2025-05-10 06:02:50.020Z80.873° E16.033°2025-05-10 06:05:50.020Z48.181° ENE
9 mins2025-05-10 07:41:50.020Z204.399° SW2025-05-10 07:45:50.020Z292.686° NW41.396°2025-05-10 07:50:50.020Z359.781° N
|